#timestamp,LO_Frequency,Hit,StdDev 
1584964815.2,286047000.2,N
1584964835.1,286047000.2,N
1584964836.0,286047000.2,N
1584964855.8,286047000.2,N
1584964875.6,286046999.7,N
1584964895.5,286047001.6,N
1584964915.3,286047002.1,N
1584964935.1,286047002.6,N
1584964955.9,286047004.1,Y
1584964975.7,286047001.8,P
1584964995.6,286047001.7,N
1584965015.4,286047000.4,N
1584965035.2,286047000.0,N
1584965055.1,286047000.7,N
1584965056.0,286047000.7,N
1584965075.8,286047002.0,Y
1584965095.7,286047000.3,P
1584965115.5,286046999.3,N
1584965135.3,286046998.9,N
1584965155.2,286046998.9,N
1584965175.0,286046999.8,N
1584965175.9,286046999.8,N
1584965195.8,286047001.7,N
1584965215.6,286047002.5,N
1584965235.4,286047004.3,Y
1584965255.3,286047005.3,P
1584965275.1,286047003.1,N
1584965295.8,286047001.5,N
1584965315.7,286047001.5,N
1584965335.5,286047001.9,N
1584965355.4,286046999.8,N
1584965375.2,286047000.1,N
1584965395.0,286047006.0,Y
1584965395.9,286047006.0,P
1584965415.8,286047001.5,N
1584965435.6,286047001.6,N
1584965455.5,286046999.9,N
1584965475.3,286047002.8,N
1584965495.1,286047000.2,N
1584965515.9,286047000.2,N
1584965535.7,286047002.4,N
1584965555.5,286047002.5,N
1584965575.4,286047003.7,N
1584965595.2,286047003.6,N
1584965615.1,286047001.8,N
1584965616.0,286047001.8,N
1584965635.8,286047001.7,N
1584965655.7,286046999.8,N
1584965675.5,286047001.1,N
1584965695.3,286046998.1,N
1584965715.2,286046998.9,N
1584965735.0,286046998.4,N
1584965735.9,286046998.4,N
1584965755.8,286046998.6,N
1584965775.6,286047000.0,N
1584965795.4,286046999.7,N
1584965815.3,286047002.0,N
1584965835.1,286047000.0,N
1584965855.8,286047000.6,N
1584965875.7,286046998.1,N
1584965895.5,286046998.7,N
1584965915.4,286047001.2,N
1584965935.2,286046998.6,N
1584965955.0,286046998.2,N
1584965955.9,286046998.2,N
1584965975.8,286046999.4,N
1584965995.6,286046999.1,N
1584966015.4,286046999.3,N
1584966035.3,286046998.5,N
1584966055.1,286047000.2,N
1584966075.9,286046999.8,N
1584966095.7,286047000.5,N
1584966115.5,286047002.0,N
1584966135.4,286047002.1,N
1584966155.2,286047002.8,N
1584966175.1,286047002.0,N
1584966176.0,286047002.0,N
1584966195.8,286047000.3,N
1584966215.6,286047000.6,N
1584966235.5,286047002.7,N
1584966255.3,286046999.9,N
1584966275.2,286046999.9,N
1584966295.9,286047002.4,N
1584966315.7,286047001.5,N
1584966335.6,286047002.0,N
1584966355.4,286047001.7,N
1584966375.2,286047001.9,N
1584966395.1,286047001.3,N
1584966396.0,286047001.3,N
1584966415.8,286047004.4,N
1584966435.7,286047003.7,N
1584966455.5,286047002.0,N
1584966475.3,286047000.6,N
1584966495.2,286047000.9,N
1584966515.0,286047000.9,N
1584966515.9,286047000.9,N
1584966535.8,286047002.5,N
1584966555.6,286047002.4,N
1584966575.4,286047001.5,N
1584966595.3,286047000.2,N
1584966615.1,286046996.6,Y
1584966635.9,286046995.5,P
1584966655.7,286046993.3,N
1584966675.5,286046997.8,N
1584966695.4,286046997.2,N
1584966715.2,286046996.6,N
1584966735.0,286046996.6,N
1584966735.9,286046996.6,N
1584966755.8,286046998.9,N
1584966775.6,286046998.7,N
1584966795.5,286046998.8,N
1584966815.3,286046997.2,N
1584966835.1,286046995.0,N
1584966855.9,286046997.8,N
1584966875.7,286046998.4,N
1584966895.6,286047000.3,N
1584966915.4,286047000.1,N
1584966935.2,286047000.7,N
1584966955.1,286046998.3,N
1584966956.0,286046998.3,N
1584966975.8,286046998.1,N
1584966995.7,286046998.7,N
1584967015.5,286046997.5,N
1584967035.3,286046993.4,Y
1584967055.2,286046996.6,P
1584967075.0,286046998.7,N
1584967075.9,286046998.7,N
1584967095.8,286047001.0,N
1584967115.6,286047001.0,N
1584967135.4,286047000.6,N
1584967155.3,286047000.0,N
1584967175.1,286047000.3,N
1584967195.9,286046999.7,N
1584967215.7,286047002.6,N
1584967235.5,286047002.4,N
1584967255.4,286047003.1,N
1584967275.2,286047001.3,N
1584967295.0,286046999.7,N
1584967295.9,286046999.7,N
1584967315.8,286047000.3,N
1584967335.6,286047000.0,N
1584967355.5,286047000.1,N
1584967375.3,286046998.1,N
1584967395.1,286046998.7,N
1584967415.9,286046999.0,N
1584967435.7,286046997.1,N
1584967455.6,286046994.9,Y
1584967475.4,286046999.6,P
1584967495.2,286046996.7,P
1584967515.1,286046999.3,N
1584967516.0,286046999.3,N
1584967535.8,286046999.5,N
1584967555.6,286047001.0,N
1584967575.5,286046998.7,N
1584967595.3,286046996.5,Y
1584967615.2,286046998.3,P
1584967635.9,286046999.3,N
1584967655.7,286046996.8,P
1584967675.6,286046999.2,N
1584967695.4,286046996.6,Y
1584967715.3,286046998.3,P
1584967735.1,286046999.4,P
1584967736.0,286046999.4,N
1584967755.8,286046996.7,Y
1584967775.7,286046996.6,P
1584967795.5,286046996.6,N
1584967815.4,286046999.4,N
1584967835.2,286046998.4,N
1584967855.0,286046998.2,N
1584967855.9,286046998.2,N
1584967875.8,286047000.8,N
1584967895.6,286046998.3,N
1584967915.4,286046999.3,N
1584967935.3,286047000.8,N
1584967955.1,286046999.0,N
1584967975.9,286046998.1,N
1584967995.7,286046998.5,N
1584968015.5,286046999.3,N
1584968035.4,286046998.9,N
1584968055.2,286046998.8,N
1584968075.0,286046998.8,N
1584968075.9,286046998.8,N
1584968095.8,286046998.8,N
1584968115.6,286046999.5,N
1584968135.5,286046999.5,N
1584968155.3,286046998.0,N
1584968175.1,286046996.2,Y
1584968195.9,286046997.9,P
1584968215.7,286046996.9,P
1584968235.6,286046999.4,N
1584968255.4,286046994.9,Y
1584968275.2,286046999.0,P
1584968295.1,286046996.6,P
1584968296.0,286046996.6,P
1584968315.8,286046999.3,N
1584968335.7,286047001.2,N
1584968355.5,286047000.7,N
1584968375.3,286046996.8,N
1584968395.2,286046999.1,N
